ONEWEB-0706, 61611

Orbit data source: Space-Track

ONEWEB-0706, 61611 is a payload satellite owned by Eut. One Web (UK) in LEO that was launched on Sun, 20 Oct 2024 UTC via an FALCON 9 launch vehicle from the Air Force Western Test Range (AFWTR). Payload-class satellites include a variety of spacecraft equipped with specific instruments for various scientific and technological missions. These include communications satellites like Starlink; space stations such as the ISS; scientific satellites like the Hubble; Earth observation satellites from companies like Planet Labs, Umbra, and HawkEye 360; GPS; miniature CubeSats for education and research; and military/defense satellites.

Loading next visibility...
Identifier
61611, 2024-188T
Orbit
LEO
Country
Flag of UKUK
Related business
Manufacturer
One Web
Mission
Operational Commercial Communications
Bus & Motor
ARROW, Unknown motor
Mass
148 kg wet, ~140 kg dry
Launch date (UTC)
2024-10-20 (1 year ago)
Launch vehicle
FALCON 9
Launch site
Air Force Western Test Range (AFWTR)
Object type
Payload
Rocket body
Debris
Shape & HBR
Trap Box + 2 Pan, 6.7 m
Radar Cross Section
3.464 m², Large (>1 m²)

Expand to show TLE details & history
Last TLE update: 1 day ago

TLE from 1 day ago
0 ONEWEB-0706
1 61611U 24188T   25305.43778752  .00000327  00000-0  90094-3 0  9993
2 61611  87.8787  81.6708 0002045  80.9868 279.1491 13.10374625 53555
Epoch: 2025-11-01T10:30Z
TLE epoch observation values (Epoch: 2025-11-01T10:30:24.841Z)
Latitude
-0.00001°
Longitude
-116.90058°
Altitude
1,224.351 km
Speed
7.242 km/s
True Right ascension
05h 26m 40s
True Declination
0° 00' 00"
Sunlit
Object was in full shadow at epoch
Visualization orbit readout
Latitude
Unknown
Longitude
Unknown
Altitude
Unknown
Speed
Unknown
Apparent Right ascension
Unknown
Apparent Declination
Unknown
Sunlit
N/A
Visualization observer readout
Local Sidereal Time
07:42:13
Azimuth
Unknown
Elevation
Unknown
Doppler factor
Unknown
Orbital elements
Apogee altitude
1,220.384 km
Perigee altitude
1,217.276 km
Semi-major axis
7,596.967 km
Eccentricity
0.0002
Inclination
87.8787°
RAAN
81.6708°
Arg. of periapsis
80.9868°
True anomaly
279.12596°
Mean anomaly
279.1491°
Eccentric anomaly
279.13753°
Mean motion
3.2778 °/min
Orbital period
109.83 mins
BSTAR
0.00090094
Loading maneuver chart data...
Computing Atmospheric mass density...
Loading historical data...
Loading historical data...
Loading historical data...
Loading historical data...
Loading historical data...
Loading historical data...
Loading historical data...

Documentation

Showing up to 5 results
|